PST,Max TemperatureF,Mean TemperatureF,Min TemperatureF,Max Dew PointF,MeanDew PointF,Min DewpointF,Max Humidity, Mean Humidity, Min Humidity, Max Sea Level PressureIn, Mean Sea Level PressureIn, Min Sea Level PressureIn, Max VisibilityMiles, Mean VisibilityMiles, Min VisibilityMiles, Max Wind SpeedMPH, Mean Wind SpeedMPH, Max Gust SpeedMPH,PrecipitationIn, CloudCover, Events, WindDirDegrees
2012-11-1,68,63,57,59,55,49,100,80,59,30.04,30.01,29.99,10,10,7,12,5,20,0.03,6,Rain,308
2012-11-2,71,60,48,54,50,45,86,70,53,30.08,30.04,30.01,10,10,10,14,7,18,0.00,0,,303
2012-11-3,75,60,44,53,48,43,100,71,41,30.15,30.10,30.06,10,9,2,12,2,14,0.00,0,,313
2012-11-4,77,62,46,52,49,44,93,67,40,30.22,30.16,30.12,10,10,6,8,2,60,0.00,0,,25
2012-11-5,83,65,46,54,50,43,93,88,83,30.18,30.11,30.05,10,9,7,5,2,,0.00,0,,100
2012-11-6,83,65,47,54,51,46,93,67,27,30.10,30.04,29.99,10,8,6,39,1,100,0.00,0,,7
2012-11-7,78,63,47,54,50,44,87,67,31,30.02,29.95,29.88,10,8,5,20,3,24,0.00,0,,282
2012-11-8,66,59,52,49,42,37,93,67,32,29.97,29.91,29.86,10,10,3,26,15,36,0.03,2,Rain,249
2012-11-9,57,48,38,45,41,37,100,80,41,29.98,29.93,29.91,10,9,2,13,4,15,0.20,5,Rain,227
2012-11-10,59,48,37,42,37,32,96,70,27,30.25,30.11,29.98,10,10,8,10,3,14,0.00,1,,340
2012-11-11,59,45,31,38,34,31,97,69,24,30.40,30.34,30.26,10,10,5,7,1,9,0.00,0,,82
2012-11-12,63,47,31,37,34,30,96,69,24,30.39,30.34,30.26,10,9,0,10,2,16,0.00,0,Fog,300
2012-11-13,68,51,34,41,37,32,92,64,21,30.28,30.19,30.11,10,10,7,8,1,13,T,0,,344
2012-11-14,68,53,38,46,41,38,96,72,30,30.14,30.09,30.04,10,10,8,6,2,18,0.00,0,,217
2012-11-15,68,53,37,44,41,35,97,68,32,30.05,30.00,29.95,8,4,2,7,2,15,0.00,1,,85
2012-11-16,62,54,46,54,49,41,96,80,55,30.01,29.96,29.91,10,6,4,18,5,25,0.05,7,Rain,125
2012-11-17,65,60,54,61,55,51,97,87,75,29.99,29.91,29.86,10,8,2,31,11,40,0.26,7,Rain,165
2012-11-18,63,57,51,54,50,44,100,84,45,30.18,30.10,30.01,10,8,2,13,2,20,0.21,5,Rain,44
2012-11-19,69,59,49,52,49,43,100,75,34,30.23,30.19,30.16,10,9,5,13,4,20,0.00,2,,129
2012-11-20,70,59,47,53,50,46,96,73,46,30.17,30.10,30.03,10,9,5,20,7,25,0.00,4,Rain,138
2012-11-21,64,59,54,57,53,45,100,86,64,30.19,30.13,30.04,10,7,2,13,5,64,0.11,6,Rain,96
2012-11-22,65,54,42,47,44,41,100,79,39,30.25,30.21,30.18,10,10,5,10,6,14,0.00,0,,304
2012-11-23,65,52,38,51,43,37,100,91,53,30.28,30.23,30.17,10,5,0,7,1,22,0.00,1,Fog,274
2012-11-24,66,52,38,50,43,38,100,93,45,30.20,30.15,30.03,10,3,0,8,1,10,0.00,3,Fog,36
2012-11-25,63,50,36,50,42,36,100,94,50,30.03,30.00,29.92,10,3,0,7,2,12,0.00,2,Fog,60
2012-11-26,67,52,37,51,44,37,100,92,48,30.07,30.02,29.98,7,2,0,6,3,13,0.00,1,Fog,92
2012-11-27,59,50,40,52,47,41,100,93,67,30.13,30.06,30.01,5,2,0,7,1,20,0.00,1,Fog,114
2012-11-28,61,54,47,55,52,48,100,91,75,30.06,29.97,29.90,10,6,1,24,7,33,0.16,4,Rain-Thunderstorm,128
2012-11-29,63,57,51,56,53,51,100,85,64,30.07,30.01,29.90,10,9,4,22,10,30,0.00,4,,155
2012-11-30,62,60,58,59,57,53,100,91,82,30.03,29.91,29.83,10,6,2,29,15,38,1.39,7,Rain,160